Year,Month,Day,Hour,Minute,Value (Times are PST for temperature in C)
2006,06,23,00,00,12.30
2006,06,23,00,01,12.20
2006,06,23,00,02,12.20
2006,06,23,00,03,12.20
2006,06,23,00,04,12.20
2006,06,23,00,05,12.20
2006,06,23,00,06,12.20
2006,06,23,00,07,12.20
2006,06,23,00,08,12.20
2006,06,23,00,09,12.20
2006,06,23,00,10,12.20
2006,06,23,00,11,12.20
2006,06,23,00,12,12.20
2006,06,23,00,13,12.20
2006,06,23,00,14,12.20
2006,06,23,00,15,12.20
2006,06,23,00,16,12.20
2006,06,23,00,17,12.20
2006,06,23,00,18,12.20
2006,06,23,00,19,12.20
2006,06,23,00,20,12.20
2006,06,23,00,21,12.20
2006,06,23,00,22,12.20
2006,06,23,00,23,12.20
2006,06,23,00,24,12.20
2006,06,23,00,25,12.20
2006,06,23,00,26,12.20
2006,06,23,00,27,12.10
2006,06,23,00,28,12.10
2006,06,23,00,29,12.10
2006,06,23,00,30,12.10
2006,06,23,00,31,12.10
2006,06,23,00,32,12.10
2006,06,23,00,33,12.10
2006,06,23,00,34,12.00
2006,06,23,00,35,12.00
2006,06,23,00,36,12.00
2006,06,23,00,37,12.00
2006,06,23,00,38,12.00
2006,06,23,00,39,12.00
2006,06,23,00,40,12.00
2006,06,23,00,41,12.00
2006,06,23,00,42,12.00
2006,06,23,00,43,12.00
2006,06,23,00,44,11.90
2006,06,23,00,45,11.90
2006,06,23,00,46,11.90
2006,06,23,00,47,11.90
2006,06,23,00,48,11.90
2006,06,23,00,49,11.90
2006,06,23,00,50,11.90
2006,06,23,00,51,11.80
2006,06,23,00,52,11.80
2006,06,23,00,53,11.80
2006,06,23,00,54,11.80
2006,06,23,00,55,11.80
2006,06,23,00,56,11.80
2006,06,23,00,57,11.80
2006,06,23,00,58,11.80
2006,06,23,00,59,11.70
2006,06,23,01,00,11.70
2006,06,23,01,01,11.70
2006,06,23,01,02,11.70
2006,06,23,01,03,11.70
2006,06,23,01,04,11.60
2006,06,23,01,05,11.60
2006,06,23,01,06,11.60
2006,06,23,01,07,11.60
2006,06,23,01,08,11.60
2006,06,23,01,09,11.60
2006,06,23,01,10,11.60
2006,06,23,01,11,11.60
2006,06,23,01,12,11.60
2006,06,23,01,13,11.60
2006,06,23,01,14,11.60
2006,06,23,01,15,11.60
2006,06,23,01,16,11.60
2006,06,23,01,17,11.50
2006,06,23,01,18,11.40
2006,06,23,01,19,11.40
2006,06,23,01,20,11.40
2006,06,23,01,21,11.40
2006,06,23,01,22,11.40
2006,06,23,01,23,11.40
2006,06,23,01,24,11.40
2006,06,23,01,25,11.40
2006,06,23,01,26,11.40
2006,06,23,01,27,11.40
2006,06,23,01,28,11.40
2006,06,23,01,29,11.40
2006,06,23,01,30,11.40
2006,06,23,01,31,11.40
2006,06,23,01,32,11.40
2006,06,23,01,33,11.40
2006,06,23,01,34,11.40
2006,06,23,01,35,11.40
2006,06,23,01,36,11.30
2006,06,23,01,37,11.30
2006,06,23,01,38,11.30
2006,06,23,01,39,11.30
2006,06,23,01,40,11.30
2006,06,23,01,41,11.30
2006,06,23,01,42,11.30
2006,06,23,01,43,11.30
2006,06,23,01,44,11.30
2006,06,23,01,45,11.30
2006,06,23,01,46,11.30
2006,06,23,01,47,11.30
2006,06,23,01,48,11.20
2006,06,23,01,49,11.20
2006,06,23,01,50,11.20
2006,06,23,01,51,11.20
2006,06,23,01,52,11.20
2006,06,23,01,53,11.20
2006,06,23,01,54,11.20
2006,06,23,01,55,11.10
2006,06,23,01,56,11.10
2006,06,23,01,57,11.10
2006,06,23,01,58,11.10
2006,06,23,01,59,11.10
2006,06,23,02,00,11.10
2006,06,23,02,01,11.10
2006,06,23,02,02,11.10
2006,06,23,02,03,11.10
2006,06,23,02,04,11.10
2006,06,23,02,05,11.10
2006,06,23,02,06,11.10
2006,06,23,02,07,11.10
2006,06,23,02,08,11.10
2006,06,23,02,09,11.10
2006,06,23,02,10,11.10
2006,06,23,02,11,11.10
2006,06,23,02,12,11.10
2006,06,23,02,13,11.10
2006,06,23,02,14,11.10
2006,06,23,02,15,11.10
2006,06,23,02,16,11.10
2006,06,23,02,17,11.10
2006,06,23,02,18,11.10
2006,06,23,02,19,11.00
2006,06,23,02,20,10.90
2006,06,23,02,21,10.90
2006,06,23,02,22,10.90
2006,06,23,02,23,10.90
2006,06,23,02,24,10.90
2006,06,23,02,25,10.90
2006,06,23,02,26,10.90
2006,06,23,02,27,10.90
2006,06,23,02,28,10.90
2006,06,23,02,29,10.90
2006,06,23,02,30,10.90
2006,06,23,02,31,10.90
2006,06,23,02,32,10.90
2006,06,23,02,33,10.90
2006,06,23,02,34,10.90
2006,06,23,02,35,10.90
2006,06,23,02,36,10.90
2006,06,23,02,37,10.90
2006,06,23,02,38,10.90
2006,06,23,02,39,10.90
2006,06,23,02,40,10.90
2006,06,23,02,41,10.90
2006,06,23,02,42,10.90
2006,06,23,02,43,10.90
2006,06,23,02,44,10.90
2006,06,23,02,45,10.90
2006,06,23,02,46,10.90
2006,06,23,02,47,10.90
2006,06,23,02,48,10.90
2006,06,23,02,49,10.90
2006,06,23,02,50,10.90
2006,06,23,02,51,10.90
2006,06,23,02,52,10.80
2006,06,23,02,53,10.80
2006,06,23,02,54,10.80
2006,06,23,02,55,10.80
2006,06,23,02,56,10.80
2006,06,23,02,57,10.80
2006,06,23,02,58,10.70
2006,06,23,02,59,10.70
2006,06,23,03,00,10.70
2006,06,23,03,01,10.70
2006,06,23,03,02,10.70
2006,06,23,03,03,10.60
2006,06,23,03,04,10.60
2006,06,23,03,05,10.60
2006,06,23,03,06,10.60
2006,06,23,03,07,10.60
2006,06,23,03,08,10.60
2006,06,23,03,09,10.60
2006,06,23,03,10,10.60
2006,06,23,03,11,10.60
2006,06,23,03,12,10.60
2006,06,23,03,13,10.60
2006,06,23,03,14,10.50
2006,06,23,03,15,10.40
2006,06,23,03,16,10.40
2006,06,23,03,17,10.40
2006,06,23,03,18,10.40
2006,06,23,03,19,10.40
2006,06,23,03,20,10.40
2006,06,23,03,21,10.40
2006,06,23,03,22,10.30
2006,06,23,03,23,10.30
2006,06,23,03,24,10.30
2006,06,23,03,25,10.20
2006,06,23,03,26,10.20
2006,06,23,03,27,10.20
2006,06,23,03,28,10.10
2006,06,23,03,29,10.10
2006,06,23,03,30,10.10
2006,06,23,03,31,10.10
2006,06,23,03,32,10.10
2006,06,23,03,33,10.10
2006,06,23,03,34,10.10
2006,06,23,03,35,10.10
2006,06,23,03,36,10.00
2006,06,23,03,37,9.90
2006,06,23,03,38,9.90
2006,06,23,03,39,9.90
2006,06,23,03,40,9.90
2006,06,23,03,41,9.90
2006,06,23,03,42,9.90
2006,06,23,03,43,9.90
2006,06,23,03,44,9.90
2006,06,23,03,45,9.80
2006,06,23,03,46,9.80
2006,06,23,03,47,9.80
2006,06,23,03,48,9.80
2006,06,23,03,49,9.80
2006,06,23,03,50,9.80
2006,06,23,03,51,9.70
2006,06,23,03,52,9.70
2006,06,23,03,53,9.70
2006,06,23,03,54,9.70
2006,06,23,03,55,9.70
2006,06,23,03,56,9.70
2006,06,23,03,57,9.70
2006,06,23,03,58,9.70
2006,06,23,03,59,9.70
2006,06,23,04,00,9.70
2006,06,23,04,01,9.70
2006,06,23,04,02,9.70
2006,06,23,04,03,9.60
2006,06,23,04,04,9.60
2006,06,23,04,05,9.60
2006,06,23,04,06,9.60
2006,06,23,04,07,9.60
2006,06,23,04,08,9.60
2006,06,23,04,09,9.60
2006,06,23,04,10,9.60
2006,06,23,04,11,9.60
2006,06,23,04,12,9.60
2006,06,23,04,13,9.50
2006,06,23,04,14,9.50
2006,06,23,04,15,9.50
2006,06,23,04,16,9.50
2006,06,23,04,17,9.50
2006,06,23,04,18,9.50
2006,06,23,04,19,9.50
2006,06,23,04,20,9.50
2006,06,23,04,21,9.50
2006,06,23,04,22,9.40
2006,06,23,04,23,9.40
2006,06,23,04,24,9.40
2006,06,23,04,25,9.40
2006,06,23,04,26,9.40
2006,06,23,04,27,9.30
2006,06,23,04,28,9.30
2006,06,23,04,29,9.30
2006,06,23,04,30,9.30
2006,06,23,04,31,9.30
2006,06,23,04,32,9.30
2006,06,23,04,33,9.30
2006,06,23,04,34,9.30
2006,06,23,04,35,9.20
2006,06,23,04,36,9.20
2006,06,23,04,37,9.20
2006,06,23,04,38,9.20
2006,06,23,04,39,9.20
2006,06,23,04,40,9.20
2006,06,23,04,41,9.20
2006,06,23,04,42,9.20
2006,06,23,04,43,9.20
2006,06,23,04,44,9.20
2006,06,23,04,45,9.20
2006,06,23,04,46,9.20
2006,06,23,04,47,9.20
2006,06,23,04,48,9.20
2006,06,23,04,49,9.20
2006,06,23,04,50,9.20
2006,06,23,04,51,9.20
2006,06,23,04,52,9.20
2006,06,23,04,53,9.20
2006,06,23,04,54,9.10
2006,06,23,04,55,9.10
2006,06,23,04,56,9.10
2006,06,23,04,57,9.10
2006,06,23,04,58,9.10
2006,06,23,04,59,9.10
2006,06,23,05,00,9.10
2006,06,23,05,01,9.00
2006,06,23,05,02,9.00
2006,06,23,05,03,9.00
2006,06,23,05,04,9.00
2006,06,23,05,05,9.00
2006,06,23,05,06,9.00
2006,06,23,05,07,9.00
2006,06,23,05,08,8.90
2006,06,23,05,09,8.90
2006,06,23,05,10,8.90
2006,06,23,05,11,8.90
2006,06,23,05,12,8.90
2006,06,23,05,13,8.90
2006,06,23,05,14,8.90
2006,06,23,05,15,8.80
2006,06,23,05,16,8.80
2006,06,23,05,17,8.80
2006,06,23,05,18,8.80
2006,06,23,05,19,8.80
2006,06,23,05,20,8.80
2006,06,23,05,21,8.80
2006,06,23,05,22,8.80
2006,06,23,05,23,8.80
2006,06,23,05,24,8.70
2006,06,23,05,25,8.70
2006,06,23,05,26,8.70
2006,06,23,05,27,8.70
2006,06,23,05,28,8.70
2006,06,23,05,29,8.70
2006,06,23,05,30,8.70
2006,06,23,05,31,8.70
2006,06,23,05,32,8.70
2006,06,23,05,33,8.70
2006,06,23,05,34,8.70
2006,06,23,05,35,8.70
2006,06,23,05,36,8.70
2006,06,23,05,37,8.70
2006,06,23,05,38,8.70
2006,06,23,05,39,8.70
2006,06,23,05,40,8.70
2006,06,23,05,41,8.70
2006,06,23,05,42,8.70
2006,06,23,05,43,8.70
2006,06,23,05,44,8.70
2006,06,23,05,45,8.70
2006,06,23,05,46,8.70
2006,06,23,05,47,8.70
2006,06,23,05,48,8.70
2006,06,23,05,49,8.70
2006,06,23,05,50,8.70
2006,06,23,05,51,8.70
2006,06,23,05,52,8.70
2006,06,23,05,53,8.70
2006,06,23,05,54,8.70
2006,06,23,05,55,8.70
2006,06,23,05,56,8.70
2006,06,23,05,57,8.70
2006,06,23,05,58,8.80
2006,06,23,05,59,8.80
2006,06,23,06,00,8.80
2006,06,23,06,01,8.80
2006,06,23,06,02,8.80
2006,06,23,06,03,8.80
2006,06,23,06,04,8.90
2006,06,23,06,05,8.90
2006,06,23,06,06,8.90
2006,06,23,06,07,8.90
2006,06,23,06,08,8.90
2006,06,23,06,09,8.90
2006,06,23,06,10,9.00
2006,06,23,06,11,9.00
2006,06,23,06,12,9.00
2006,06,23,06,13,9.00
2006,06,23,06,14,9.00
2006,06,23,06,15,9.10
2006,06,23,06,16,9.10
2006,06,23,06,17,9.10
2006,06,23,06,18,9.10
2006,06,23,06,19,9.20
2006,06,23,06,20,9.20
2006,06,23,06,21,9.20
2006,06,23,06,22,9.20
2006,06,23,06,23,9.20
2006,06,23,06,24,9.20
2006,06,23,06,25,9.20
2006,06,23,06,26,9.20
2006,06,23,06,27,9.20
2006,06,23,06,28,9.20
2006,06,23,06,29,9.20
2006,06,23,06,30,9.30
2006,06,23,06,31,9.30
2006,06,23,06,32,9.30
2006,06,23,06,33,9.30
2006,06,23,06,34,9.40
2006,06,23,06,35,9.40
2006,06,23,06,36,9.40
2006,06,23,06,37,9.50
2006,06,23,06,38,9.50
2006,06,23,06,39,9.50
2006,06,23,06,40,9.60
2006,06,23,06,41,9.60
2006,06,23,06,42,9.60
2006,06,23,06,43,9.60
2006,06,23,06,44,9.70
2006,06,23,06,45,9.70
2006,06,23,06,46,9.70
2006,06,23,06,47,9.70
2006,06,23,06,48,9.70
2006,06,23,06,49,9.70
2006,06,23,06,50,9.80
2006,06,23,06,51,9.80
2006,06,23,06,52,9.80
2006,06,23,06,53,9.90
2006,06,23,06,54,9.90
2006,06,23,06,55,9.90
2006,06,23,06,56,9.90
2006,06,23,06,57,10.10
2006,06,23,06,58,10.10
2006,06,23,06,59,10.10
2006,06,23,07,00,10.20
2006,06,23,07,01,10.20
2006,06,23,07,02,10.30
2006,06,23,07,03,10.30
2006,06,23,07,04,10.30
2006,06,23,07,05,10.40
2006,06,23,07,06,10.40
2006,06,23,07,07,10.50
2006,06,23,07,08,10.60
2006,06,23,07,09,10.60
2006,06,23,07,10,10.70
2006,06,23,07,11,10.70
2006,06,23,07,12,10.70
2006,06,23,07,13,10.80
2006,06,23,07,14,10.90
2006,06,23,07,15,10.90
2006,06,23,07,16,11.00
2006,06,23,07,17,11.10
2006,06,23,07,18,11.20
2006,06,23,07,19,11.30
2006,06,23,07,20,11.40
2006,06,23,07,21,11.50
2006,06,23,07,22,11.60
2006,06,23,07,23,11.70
2006,06,23,07,24,11.80
2006,06,23,07,25,12.00
2006,06,23,07,26,12.00
2006,06,23,07,27,12.20
2006,06,23,07,28,12.30
2006,06,23,07,29,12.40
2006,06,23,07,30,12.60
2006,06,23,07,31,12.70
2006,06,23,07,32,12.80
2006,06,23,07,33,13.00
2006,06,23,07,34,13.10
2006,06,23,07,35,13.10
2006,06,23,07,36,13.20
2006,06,23,07,37,13.30
2006,06,23,07,38,13.30
2006,06,23,07,39,13.30
2006,06,23,07,40,13.40
2006,06,23,07,41,13.50
2006,06,23,07,42,13.60
2006,06,23,07,43,13.60
2006,06,23,07,44,13.70
2006,06,23,07,45,13.70
2006,06,23,07,46,13.80
2006,06,23,07,47,13.90
2006,06,23,07,48,13.90
2006,06,23,07,49,14.00
2006,06,23,07,50,14.00
2006,06,23,07,51,14.10
2006,06,23,07,52,14.20
2006,06,23,07,53,14.30
2006,06,23,07,54,14.40
2006,06,23,07,55,14.40
2006,06,23,07,56,14.50
2006,06,23,07,57,14.50
2006,06,23,07,58,14.50
2006,06,23,07,59,14.50
2006,06,23,08,00,14.50
2006,06,23,08,01,14.60
2006,06,23,08,02,14.60
2006,06,23,08,03,14.70
2006,06,23,08,04,14.70
2006,06,23,08,05,14.70
2006,06,23,08,06,14.70
2006,06,23,08,07,14.70
2006,06,23,08,08,14.80
2006,06,23,08,09,14.80
2006,06,23,08,10,14.80
2006,06,23,08,11,14.80
2006,06,23,08,12,14.80
2006,06,23,08,13,14.80
2006,06,23,08,14,14.80
2006,06,23,08,15,14.80
2006,06,23,08,16,14.80
2006,06,23,08,17,14.80
2006,06,23,08,18,14.80
2006,06,23,08,19,14.80
2006,06,23,08,20,14.80
2006,06,23,08,21,14.80
2006,06,23,08,22,14.90
2006,06,23,08,23,14.90
2006,06,23,08,24,14.90
2006,06,23,08,25,14.90
2006,06,23,08,26,15.00
2006,06,23,08,27,15.00
2006,06,23,08,28,15.00
2006,06,23,08,29,15.10
2006,06,23,08,30,15.10
2006,06,23,08,31,15.10
2006,06,23,08,32,15.10
2006,06,23,08,33,15.10
2006,06,23,08,34,15.20
2006,06,23,08,35,15.20
2006,06,23,08,36,15.30
2006,06,23,08,37,15.30
2006,06,23,08,38,15.30
2006,06,23,08,39,15.30
2006,06,23,08,40,15.30
2006,06,23,08,41,15.20
2006,06,23,08,42,15.10
2006,06,23,08,43,15.10
2006,06,23,08,44,15.20
2006,06,23,08,45,15.20
2006,06,23,08,46,15.30
2006,06,23,08,47,15.30
2006,06,23,08,48,15.30
2006,06,23,08,49,15.40
2006,06,23,08,50,15.50
2006,06,23,08,51,15.50
2006,06,23,08,52,15.50
2006,06,23,08,53,15.50
2006,06,23,08,54,15.50
2006,06,23,08,55,15.40
2006,06,23,08,56,15.40
2006,06,23,08,57,15.40
2006,06,23,08,58,15.50
2006,06,23,08,59,15.50
2006,06,23,09,00,15.50
2006,06,23,09,01,15.50
2006,06,23,09,02,15.50
2006,06,23,09,03,15.50
2006,06,23,09,04,15.50
2006,06,23,09,05,15.50
2006,06,23,09,06,15.50
2006,06,23,09,07,15.50
2006,06,23,09,08,15.50
2006,06,23,09,09,15.50
2006,06,23,09,10,15.50
2006,06,23,09,11,15.60
2006,06,23,09,12,15.60
2006,06,23,09,13,15.60
2006,06,23,09,14,15.60
2006,06,23,09,15,15.60
2006,06,23,09,16,15.60
2006,06,23,09,17,15.60
2006,06,23,09,18,15.60
2006,06,23,09,19,15.70
2006,06,23,09,20,15.80
2006,06,23,09,21,15.80
2006,06,23,09,22,15.90
2006,06,23,09,23,15.90
2006,06,23,09,24,15.90
2006,06,23,09,25,15.80
2006,06,23,09,26,15.80
2006,06,23,09,27,16.00
2006,06,23,09,28,16.10
2006,06,23,09,29,16.10
2006,06,23,09,30,16.10
2006,06,23,09,31,16.10
2006,06,23,09,32,16.10
2006,06,23,09,33,16.20
2006,06,23,09,34,16.20
2006,06,23,09,35,16.20
2006,06,23,09,36,16.10
2006,06,23,09,37,16.10
2006,06,23,09,38,16.20
2006,06,23,09,39,16.20
2006,06,23,09,40,16.30
2006,06,23,09,41,16.30
2006,06,23,09,42,16.40
2006,06,23,09,43,16.40
2006,06,23,09,44,16.40
2006,06,23,09,45,16.30
2006,06,23,09,46,16.30
2006,06,23,09,47,16.30
2006,06,23,09,48,16.30
2006,06,23,09,49,16.30
2006,06,23,09,50,16.30
2006,06,23,09,51,16.30
2006,06,23,09,52,16.40
2006,06,23,09,53,16.40
2006,06,23,09,54,16.50
2006,06,23,09,55,16.60
2006,06,23,09,56,16.50
2006,06,23,09,57,16.40
2006,06,23,09,58,16.40
2006,06,23,09,59,16.40
2006,06,23,10,00,16.40
2006,06,23,10,01,16.40
2006,06,23,10,02,16.40
2006,06,23,10,03,16.40
2006,06,23,10,04,16.40
2006,06,23,10,05,16.40
2006,06,23,10,06,16.40
2006,06,23,10,07,16.40
2006,06,23,10,08,16.50
2006,06,23,10,09,16.60
2006,06,23,10,10,16.60
2006,06,23,10,11,16.60
2006,06,23,10,12,16.60
2006,06,23,10,13,16.60
2006,06,23,10,14,16.60
2006,06,23,10,15,16.60
2006,06,23,10,16,16.60
2006,06,23,10,17,16.70
2006,06,23,10,18,16.70
2006,06,23,10,19,16.70
2006,06,23,10,20,16.70
2006,06,23,10,21,16.70
2006,06,23,10,22,16.70
2006,06,23,10,23,16.70
2006,06,23,10,24,16.70
2006,06,23,10,25,16.70
2006,06,23,10,26,16.80
2006,06,23,10,27,16.80
2006,06,23,10,28,16.80
2006,06,23,10,29,16.90
2006,06,23,10,30,16.90
2006,06,23,10,31,16.90
2006,06,23,10,32,16.90
2006,06,23,10,33,16.80
2006,06,23,10,34,16.80
2006,06,23,10,35,16.90
2006,06,23,10,36,17.00
2006,06,23,10,37,17.00
2006,06,23,10,38,17.00
2006,06,23,10,39,16.90
2006,06,23,10,40,16.90
2006,06,23,10,41,17.00
2006,06,23,10,42,17.00
2006,06,23,10,43,17.10
2006,06,23,10,44,17.20
2006,06,23,10,45,17.30
2006,06,23,10,46,17.30
2006,06,23,10,47,17.30
2006,06,23,10,48,17.30
2006,06,23,10,49,17.30
2006,06,23,10,50,17.30
2006,06,23,10,51,17.30
2006,06,23,10,52,17.40
2006,06,23,10,53,17.40
2006,06,23,10,54,17.50
2006,06,23,10,55,17.60
2006,06,23,10,56,17.60
2006,06,23,10,57,17.70
2006,06,23,10,58,17.70
2006,06,23,10,59,17.70
2006,06,23,11,00,17.70
2006,06,23,11,01,17.70
2006,06,23,11,02,17.70
2006,06,23,11,03,17.70
2006,06,23,11,04,17.70
2006,06,23,11,05,17.60
2006,06,23,11,06,17.60
2006,06,23,11,07,17.70
2006,06,23,11,08,17.80
2006,06,23,11,09,17.90
2006,06,23,11,10,17.90
2006,06,23,11,11,17.90
2006,06,23,11,12,17.90
2006,06,23,11,13,17.70
2006,06,23,11,14,17.70
2006,06,23,11,15,17.70
2006,06,23,11,16,17.70
2006,06,23,11,17,17.80
2006,06,23,11,18,17.90
2006,06,23,11,19,18.00
2006,06,23,11,20,18.20
2006,06,23,11,21,18.40
2006,06,23,11,22,18.50
2006,06,23,11,23,18.50
2006,06,23,11,24,18.50
2006,06,23,11,25,18.50
2006,06,23,11,26,18.50
2006,06,23,11,27,18.50
2006,06,23,11,28,18.60
2006,06,23,11,29,18.50
2006,06,23,11,30,18.50
2006,06,23,11,31,18.60
2006,06,23,11,32,18.60
2006,06,23,11,33,18.50
2006,06,23,11,34,18.40
2006,06,23,11,35,18.30
2006,06,23,11,36,18.30
2006,06,23,11,37,18.20
2006,06,23,11,38,18.10
2006,06,23,11,39,18.10
2006,06,23,11,40,18.00
2006,06,23,11,41,17.90
2006,06,23,11,42,17.90
2006,06,23,11,43,18.00
2006,06,23,11,44,18.10
2006,06,23,11,45,18.10
2006,06,23,11,46,18.10
2006,06,23,11,47,18.00
2006,06,23,11,48,17.90
2006,06,23,11,49,17.90
2006,06,23,11,50,17.90
2006,06,23,11,51,18.00
2006,06,23,11,52,18.10
2006,06,23,11,53,18.20
2006,06,23,11,54,18.10
2006,06,23,11,55,18.00
2006,06,23,11,56,17.90
2006,06,23,11,57,18.00
2006,06,23,11,58,18.10
2006,06,23,11,59,18.20
2006,06,23,12,00,18.20
2006,06,23,12,01,18.20
2006,06,23,12,02,18.20
2006,06,23,12,03,18.20
2006,06,23,12,04,18.30
2006,06,23,12,05,18.40
2006,06,23,12,06,18.50
2006,06,23,12,07,18.50
2006,06,23,12,08,18.50
2006,06,23,12,09,18.60
2006,06,23,12,10,18.70
2006,06,23,12,11,18.70
2006,06,23,12,12,18.60
2006,06,23,12,13,18.70
2006,06,23,12,14,18.70
2006,06,23,12,15,18.70
2006,06,23,12,16,18.80
2006,06,23,12,17,18.70
2006,06,23,12,18,18.70
2006,06,23,12,19,18.50
2006,06,23,12,20,18.50
2006,06,23,12,21,18.60
2006,06,23,12,22,18.60
2006,06,23,12,23,18.70
2006,06,23,12,24,18.70
2006,06,23,12,25,18.60
2006,06,23,12,26,18.50
2006,06,23,12,27,18.40
2006,06,23,12,28,18.40
2006,06,23,12,29,18.40
2006,06,23,12,30,18.30
2006,06,23,12,31,18.30
2006,06,23,12,32,18.30
2006,06,23,12,33,18.50
2006,06,23,12,34,18.60
2006,06,23,12,35,18.60
2006,06,23,12,36,18.70
2006,06,23,12,37,18.70
2006,06,23,12,38,18.70
2006,06,23,12,39,18.70
2006,06,23,12,40,18.70
2006,06,23,12,41,18.70
2006,06,23,12,42,18.60
2006,06,23,12,43,18.60
2006,06,23,12,44,18.60
2006,06,23,12,45,18.60
2006,06,23,12,46,18.60
2006,06,23,12,47,18.80
2006,06,23,12,48,18.80
2006,06,23,12,49,19.00
2006,06,23,12,50,19.10
2006,06,23,12,51,19.20
2006,06,23,12,52,19.10
2006,06,23,12,53,19.10
2006,06,23,12,54,19.20
2006,06,23,12,55,19.20
2006,06,23,12,56,19.20
2006,06,23,12,57,19.10
2006,06,23,12,58,19.10
2006,06,23,12,59,19.10
2006,06,23,13,00,19.20
2006,06,23,13,01,19.30
2006,06,23,13,02,19.30
2006,06,23,13,03,19.30
2006,06,23,13,04,19.30
2006,06,23,13,05,19.40
2006,06,23,13,06,19.50
2006,06,23,13,07,19.60
2006,06,23,13,08,19.70
2006,06,23,13,09,19.80
2006,06,23,13,10,19.90
2006,06,23,13,11,19.90
2006,06,23,13,12,19.90
2006,06,23,13,13,19.90
2006,06,23,13,14,19.90
2006,06,23,13,15,19.90
2006,06,23,13,16,19.90
2006,06,23,13,17,19.80
2006,06,23,13,18,19.80
2006,06,23,13,19,19.80
2006,06,23,13,20,19.90
2006,06,23,13,21,19.90
2006,06,23,13,22,20.00
2006,06,23,13,23,20.10
2006,06,23,13,24,20.20
2006,06,23,13,25,20.30
2006,06,23,13,26,20.20
2006,06,23,13,27,20.20
2006,06,23,13,28,20.10
2006,06,23,13,29,20.00
2006,06,23,13,30,19.90
2006,06,23,13,31,19.90
2006,06,23,13,32,19.90
2006,06,23,13,33,20.10
2006,06,23,13,34,20.10
2006,06,23,13,35,20.20
2006,06,23,13,36,20.20
2006,06,23,13,37,20.20
2006,06,23,13,38,20.40
2006,06,23,13,39,20.40
2006,06,23,13,40,20.30
2006,06,23,13,41,20.20
2006,06,23,13,42,20.20
2006,06,23,13,43,20.20
2006,06,23,13,44,20.30
2006,06,23,13,45,20.40
2006,06,23,13,46,20.40
2006,06,23,13,47,20.50
2006,06,23,13,48,20.50
2006,06,23,13,49,20.50
2006,06,23,13,50,20.60
2006,06,23,13,51,20.70
2006,06,23,13,52,20.80
2006,06,23,13,53,20.90
2006,06,23,13,54,21.00
2006,06,23,13,55,21.00
2006,06,23,13,56,21.10
2006,06,23,13,57,21.20
2006,06,23,13,58,21.30
2006,06,23,13,59,21.30
2006,06,23,14,00,21.30
2006,06,23,14,01,21.10
2006,06,23,14,02,21.00
2006,06,23,14,03,21.00
2006,06,23,14,04,21.10
2006,06,23,14,05,21.30
2006,06,23,14,06,21.30
2006,06,23,14,07,21.30
2006,06,23,14,08,21.40
2006,06,23,14,09,21.50
2006,06,23,14,10,21.60
2006,06,23,14,11,21.60
2006,06,23,14,12,21.60
2006,06,23,14,13,21.60
2006,06,23,14,14,21.60
2006,06,23,14,15,21.60
2006,06,23,14,16,21.60
2006,06,23,14,17,21.60
2006,06,23,14,18,21.60
2006,06,23,14,19,21.50
2006,06,23,14,20,21.50
2006,06,23,14,21,21.60
2006,06,23,14,22,21.60
2006,06,23,14,23,21.60
2006,06,23,14,24,21.60
2006,06,23,14,25,21.80
2006,06,23,14,26,21.90
2006,06,23,14,27,22.00
2006,06,23,14,28,22.00
2006,06,23,14,29,22.00
2006,06,23,14,30,22.00
2006,06,23,14,31,21.90
2006,06,23,14,32,21.80
2006,06,23,14,33,21.70
2006,06,23,14,34,21.60
2006,06,23,14,35,21.60
2006,06,23,14,36,21.60
2006,06,23,14,37,21.50
2006,06,23,14,38,21.40
2006,06,23,14,39,21.40
2006,06,23,14,40,21.30
2006,06,23,14,41,21.20
2006,06,23,14,42,21.20
2006,06,23,14,43,21.20
2006,06,23,14,44,21.20
2006,06,23,14,45,21.20
2006,06,23,14,46,21.20
2006,06,23,14,47,21.20
2006,06,23,14,48,21.30
2006,06,23,14,49,21.40
2006,06,23,14,50,21.40
2006,06,23,14,51,21.40
2006,06,23,14,52,21.40
2006,06,23,14,53,21.40
2006,06,23,14,54,21.40
2006,06,23,14,55,21.40
2006,06,23,14,56,21.40
2006,06,23,14,57,21.40
2006,06,23,14,58,21.40
2006,06,23,14,59,21.40
2006,06,23,15,00,21.30
2006,06,23,15,01,21.30
2006,06,23,15,02,21.30
2006,06,23,15,03,21.40
2006,06,23,15,04,21.40
2006,06,23,15,05,21.50
2006,06,23,15,06,21.60
2006,06,23,15,07,21.70
2006,06,23,15,08,21.80
2006,06,23,15,09,21.90
2006,06,23,15,10,21.90
2006,06,23,15,11,22.00
2006,06,23,15,12,22.10
2006,06,23,15,13,22.10
2006,06,23,15,14,22.10
2006,06,23,15,15,22.10
2006,06,23,15,16,22.10
2006,06,23,15,17,22.00
2006,06,23,15,18,21.90
2006,06,23,15,19,21.90
2006,06,23,15,20,21.70
2006,06,23,15,21,21.60
2006,06,23,15,22,21.60
2006,06,23,15,23,21.60
2006,06,23,15,24,21.60
2006,06,23,15,25,21.60
2006,06,23,15,26,21.50
2006,06,23,15,27,21.60
2006,06,23,15,28,21.60
2006,06,23,15,29,21.70
2006,06,23,15,30,21.70
2006,06,23,15,31,21.80
2006,06,23,15,32,22.00
2006,06,23,15,33,22.10
2006,06,23,15,34,22.20
2006,06,23,15,35,22.40
2006,06,23,15,36,22.50
2006,06,23,15,37,22.60
2006,06,23,15,38,22.40
2006,06,23,15,39,22.20
2006,06,23,15,40,22.00
2006,06,23,15,41,21.90
2006,06,23,15,42,21.80
2006,06,23,15,43,21.80
2006,06,23,15,44,21.80
2006,06,23,15,45,21.70
2006,06,23,15,46,21.70
2006,06,23,15,47,21.80
2006,06,23,15,48,21.90
2006,06,23,15,49,22.00
2006,06,23,15,50,22.00
2006,06,23,15,51,22.10
2006,06,23,15,52,22.10
2006,06,23,15,53,22.20
2006,06,23,15,54,22.30
2006,06,23,15,55,22.30
2006,06,23,15,56,22.40
2006,06,23,15,57,22.50
2006,06,23,15,58,22.40
2006,06,23,15,59,22.30
2006,06,23,16,00,22.20
2006,06,23,16,01,22.20
2006,06,23,16,02,22.00
2006,06,23,16,03,21.90
2006,06,23,16,04,22.00
2006,06,23,16,05,22.00
2006,06,23,16,06,22.10
2006,06,23,16,07,22.10
2006,06,23,16,08,22.00
2006,06,23,16,09,21.90
2006,06,23,16,10,21.80
2006,06,23,16,11,21.80
2006,06,23,16,12,21.70
2006,06,23,16,13,21.70
2006,06,23,16,14,21.70
2006,06,23,16,15,21.60
2006,06,23,16,16,21.60
2006,06,23,16,17,21.50
2006,06,23,16,18,21.40
2006,06,23,16,19,21.40
2006,06,23,16,20,21.40
2006,06,23,16,21,21.40
2006,06,23,16,22,21.40
2006,06,23,16,23,21.40
2006,06,23,16,24,21.40
2006,06,23,16,25,21.40
2006,06,23,16,26,21.30
2006,06,23,16,27,21.30
2006,06,23,16,28,21.40
2006,06,23,16,29,21.40
2006,06,23,16,30,21.40
2006,06,23,16,31,21.40
2006,06,23,16,32,21.40
2006,06,23,16,33,21.40
2006,06,23,16,34,21.40
2006,06,23,16,35,21.40
2006,06,23,16,36,21.50
2006,06,23,16,37,21.60
2006,06,23,16,38,21.70
2006,06,23,16,39,21.80
2006,06,23,16,40,21.90
2006,06,23,16,41,22.00
2006,06,23,16,42,22.10
2006,06,23,16,43,22.10
2006,06,23,16,44,22.20
2006,06,23,16,45,22.20
2006,06,23,16,46,22.20
2006,06,23,16,47,22.20
2006,06,23,16,48,22.10
2006,06,23,16,49,22.00
2006,06,23,16,50,22.00
2006,06,23,16,51,22.00
2006,06,23,16,52,22.00
2006,06,23,16,53,22.00
2006,06,23,16,54,21.90
2006,06,23,16,55,21.90
2006,06,23,16,56,21.90
2006,06,23,16,57,21.90
2006,06,23,16,58,22.00
2006,06,23,16,59,22.00
2006,06,23,17,00,22.10
2006,06,23,17,01,22.20
2006,06,23,17,02,22.20
2006,06,23,17,03,22.20
2006,06,23,17,04,22.40
2006,06,23,17,05,22.50
2006,06,23,17,06,22.60
2006,06,23,17,07,22.60
2006,06,23,17,08,22.70
2006,06,23,17,09,22.70
2006,06,23,17,10,22.80
2006,06,23,17,11,22.80
2006,06,23,17,12,22.90
2006,06,23,17,13,22.90
2006,06,23,17,14,22.90
2006,06,23,17,15,22.90
2006,06,23,17,16,22.90
2006,06,23,17,17,22.90
2006,06,23,17,18,22.90
2006,06,23,17,19,22.90
2006,06,23,17,20,22.90
2006,06,23,17,21,22.70
2006,06,23,17,22,22.70
2006,06,23,17,23,22.70
2006,06,23,17,24,22.70
2006,06,23,17,25,22.80
2006,06,23,17,26,22.70
2006,06,23,17,27,22.50
2006,06,23,17,28,22.40